Find Starlink 37128

NORAD ID: 68385 Int'l Des: 2026-063 Owner: SPXS Country: US Constellation: starlink operational
LEOCIRCULARRETROGRADE

現在のビュー

3D地球を読み込み中...

About Starlink 37128

Starlink 37128 (NORAD 68385) is a starlink constellation satellite (v2 mini) launched Mar 26, 2026 by SPXS of US. It operates in LEO, CIRCULAR, RETROGRADE orbit with a mass of 575.00 kg.

Starlink 37128について

説明を読み込み中...

次回通過

Passes for default location (London). Set your location on the main map for personalized predictions.

高度履歴

Loading altitude history...

軌道要素

1 68385U 26063F 26175.30970031 .00020524 00000-0 63628-3 0 9992
2 68385 97.2857 317.4245 0001370 85.0110 275.1289 15.33447035 14231
Epoch: Jun 24, 2026 • Age: 20 hours

現在のステータス

高度 468.7 km
速度 7.63 km/s
衛星直下点 29.30°N, 17.93°W
打ち上げ日 Mar 26, 2026
運用期間 0.2 years
タイプ internet

技術仕様

分類 Payload
質量 575.00 kg
乾燥質量 530.00 kg
総質量 575.00 kg
長さ 0.30 m
直径 4.10 m
スパン 29.00 m
形状 Box + pan
製造者 SPXS
バスタイプ Starlink V2MO
フェーズステータス In Orbit
所有者/国 SPXS/US

Most Searched